Weather Service Report


299 
ASUS45 KREV 290710
RWRNV 
NEVADA REGIONAL WEATHER ROUNDUP
NATIONAL WEATHER SERVICE RENO NV
1200 AM PDT WED JUN 29 2016

NOTE: "FAIR" INDICATES FEW OR NO CLOUDS BELOW 12,000 FEET WITH NO
SIGNIFICANT WEATHER AND/OR OBSTRUCTIONS TO VISIBILITY.

NVZ001-003-004-290800-
WESTERN NEVADA
  
CITY           SKY/WX    TMP DP  RH WIND       PRES   REMARKS
RENO           PTCLDY    79  38  22 N7        30.14F                  
CARSON CITY    FAIR      72  36  26 CALM      30.17S                  
MINDEN         FAIR      64  46  52 SE6       30.17S                  
PYRAMID LAKE     N/A     79 N/A N/A SW7         N/A                   
FALLON         MOCLDY    84  39  20 W10       30.08F                  
LOVELOCK       MOCLDY    85  27  12 NW8       30.06S                  
HAWTHORNE      CLEAR     84  37  18 CALM      30.11F                  
$$

NVZ002-CAZ072-073-290800-
NORTHERN AND CENTRAL SIERRA
  
CITY           SKY/WX    TMP DP  RH WIND       PRES   REMARKS
S. LAKE TAHOE  CLEAR     57  41  55 CALM      30.30S                  
TRUCKEE        CLEAR     52  41  66 CALM      30.28F                  
SQUAW VLY 8000 NOT AVBL                                               
MAMMOTH LAKES  FAIR      58  46  62 W8        30.38S                  
BRIDGEPORT     FAIR      60  41  49 NE3       30.34F                  
$$

NVZ030-031-036-290800-
NORTHERN NEVADA
  
CITY           SKY/WX    TMP DP  RH WIND       PRES   REMARKS
ELKO           MOCLDY    81  34  18 W13G20    30.15S                  
WINNEMUCCA     MOCLDY    72  20  14 CALM      30.08S                  
WENDOVER       MOCLDY    82  37  20 S7        30.08S                  
$$

NVZ035-037-290800-
CENTRAL NEVADA
  
CITY           SKY/WX    TMP DP  RH WIND       PRES   REMARKS
ELY            CLOUDY    64  54  69 CALM      30.36F                  
EUREKA           N/A     74  41  30 SE15      30.27S                  
$$

NVZ013-014-290800-
SOUTH CENTRAL NEVADA
  
CITY           SKY/WX    TMP DP  RH WIND       PRES   REMARKS
TONOPAH        PTCLDY    77  40  26 N7        30.20F                  
$$

NVZ017-020-022-290800-
SOUTHERN NEVADA
  
CITY           SKY/WX    TMP DP  RH WIND       PRES   REMARKS
LAS VEGAS      PTCLDY    90  48  23 W6        29.88F                  
N. LAS VEGAS   CLEAR     89  52  28 W7        29.91F                  
NELLIS AFB     CLEAR     90  53  28 W1        29.88F                  
HENDERSON      PTCLDY    84  58  40 SW6       29.95F                  
MERCURY        PTCLDY    84  45  25 CALM      30.00F                  
$$
  

Return to Home page


Western Regional Climate Center, wrcc@dri.edu